Location: Czu?�w
(50.1404°N, 18.9919°E)
Time: 14:48:01
(UTC+00:00)

PSLV R/B - Pass Details

Date: 27 October 2020
Orbit: 567 x 599 km, 98.2° (Epoch: 28 November)

Event Time Altitude Azimuth Distance (km) Brightness Sun altitude
Rises 17:20:55 0° 12° (NNE) 2,848 7.4 -18.5°
Reaches altitude 10° 17:23:07 10° 10° (N) 1,938 6.5 -18.9°
Maximum altitude 17:27:17 70° 287° (WNW) 633 4.2 -19.5°
Drops below altitude 10° 17:31:24 10° 205° (SSW) 1,904 6.8 -20.2°
Sets 17:33:32 0° 203° (SSW) 2,793 7.7 -20.5°
